Flag for Germany Weather past 2 weeks in Erding, Bavaria, Germany

Now
46 °F

Broken clouds.


Feels Like: 40 °F
Forecast: 32 / 58 °F
Wind: 15 mph from Northwest

Location: Munich / Franz Josef Strauss Airport

Current Time: Apr 28, 2015 at 4:53:21 PM

Latest Report: Apr 28, 2015 at 4:20 PM


Visibility: N/A

Pressure: 30.04 "Hg

Humidity: 76%

Dew point: 39 °F

Location of ErdingLocation

Historic Weather in Erding — Graph

°F

Erding temperature yesterday

Maximum temperature yesterday: 72 °F (at 2:50 PM)
Minimum temperature yesterday: 43 °F (at 5:50 AM)
Average temperature yesterday: 59 °F

Past Weeks' High & Low Weather Summary

 TemperatureHumidityPressure
High73 °F (Apr 15, 4:50 PM)100% (Apr 17, 4:20 PM)30.42 "Hg (Apr 17, 4:20 PM)
Low28 °F (Apr 24, 5:50 AM)22% (Apr 15, 5:50 PM)29.47 "Hg (Apr 27, 6:20 PM)
Average52 °F65%30.05 "Hg
* Reported Apr 13 3:20 PM — Apr 28 3:50 PM, Erding, Weather by CustomWeather, © 2015

Note: Actual official high and low records may vary slightly from our data, if they occured in-between our weather recording intervals... More about our weather records

Advertising

Erding weather history for previous 24 hours

 ConditionsComfort  
Time TempWeatherWind HumidityBarometerVisibility
3:50 PM
Tue, Apr 28
46 °FBroken clouds.12 mph82%30.01 "HgN/A
3:20 PM46 °FBroken clouds.14 mph82%30.01 "HgN/A
2:50 PM45 °FBroken clouds.17 mph87%30.01 "HgN/A
2:20 PM45 °FLight rain. More clouds than sun.15 mph93%29.98 "HgN/A
1:50 PM45 °FLight rain. More clouds than sun.14 mph87%29.95 "HgN/A
1:20 PM45 °FLight rain. More clouds than sun.20 mph87%29.95 "HgN/A
12:50 PM46 °FLight rain. More clouds than sun.15 mph87%29.92 "HgN/A
12:20 PM45 °FLight rain. More clouds than sun.16 mph87%29.92 "HgN/A
11:50 AM45 °FLight rain. More clouds than sun.16 mph87%29.89 "Hg6 mi
11:20 AM45 °FLight rain. Mostly cloudy.15 mph93%29.86 "Hg6 mi
10:50 AM45 °FLight rain. Mostly cloudy.15 mph93%29.86 "Hg6 mi
10:20 AM45 °FLight rain. More clouds than sun.15 mph93%29.83 "HgN/A
9:50 AM46 °FLight rain. Mostly cloudy.16 mph87%29.80 "Hg6 mi
9:20 AM46 °FLight rain. Mostly cloudy.10 mph93%29.77 "Hg5 mi
8:50 AM48 °FDrizzle. Mostly cloudy.13 mph94%29.74 "Hg3 mi
8:20 AM46 °FDrizzle. Mostly cloudy.14 mph93%29.71 "Hg3 mi
7:50 AM48 °FDrizzle. Partly sunny.10 mph94%29.68 "Hg1 mi
7:20 AM50 °FLight rain. Partly sunny.12 mph94%29.68 "Hg5 mi
6:50 AM50 °FLight rain. Passing clouds.10 mph94%29.65 "Hg5 mi
6:20 AM52 °FLight rain. Passing clouds.7 mph94%29.62 "Hg5 mi
5:20 AM52 °FLight rain. Mostly cloudy.7 mph94%29.62 "Hg6 mi
4:50 AM54 °FLight rain. Partly cloudy.10 mph88%29.62 "HgN/A
4:20 AM54 °FPassing clouds.7 mph88%29.59 "HgN/A
3:50 AM54 °FPassing clouds.7 mph88%29.59 "HgN/A
3:20 AM54 °FPartly cloudy.5 mph88%29.59 "HgN/A
2:50 AM54 °FPartly cloudy.6 mph88%29.59 "HgN/A
2:20 AM54 °FPassing clouds.6 mph88%29.56 "HgN/A
1:50 AM55 °FPassing clouds.6 mph82%29.56 "HgN/A
1:20 AM55 °FPassing clouds.9 mph88%29.56 "HgN/A
12:50 AM55 °FPartly cloudy.13 mph88%29.56 "HgN/A
12:20 AM55 °FPassing clouds.13 mph88%29.53 "HgN/A
11:50 PM
Mon, Apr 27
55 °FPartly cloudy.8 mph88%29.53 "HgN/A
11:20 PM57 °FThundershowers. Partly cloudy.9 mph82%29.53 "HgN/A
10:50 PM57 °FThunderstorms. Partly cloudy.15 mph82%29.53 "HgN/A
10:20 PM54 °FStrong thunderstorms. Partly cloudy.8 mph82%29.50 "HgN/A
9:50 PM63 °FPartly cloudy.6 mph59%29.47 "HgN/A
9:20 PM64 °FPartly cloudy.5 mph52%29.47 "HgN/A
8:50 PM64 °FBroken clouds.3 mph52%29.47 "HgN/A
8:20 PM66 °FSunny.3 mph52%29.47 "Hg10 mi
7:50 PM68 °FSunny.3 mph46%29.47 "Hg10 mi
7:20 PM70 °FPassing clouds.3 mph43%29.47 "HgN/A
6:50 PM70 °FPassing clouds.5 mph43%29.47 "HgN/A
6:20 PM72 °FPassing clouds.6 mph44%29.47 "HgN/A
5:50 PM72 °FBroken clouds.5 mph41%29.50 "HgN/A
5:20 PM72 °FBroken clouds.3 mph41%29.50 "HgN/A
4:50 PM72 °FBroken clouds.5 mph44%29.50 "HgN/A
4:20 PM70 °FBroken clouds.6 mph40%29.53 "HgN/A
Weather by CustomWeather, © 2015

See weather overviewHow to use our weather pages